Regional Weather Roundup
Issued by NWS

Home | Current Version | Previous Version | Graphics & Text | Print | Product List | Glossary On
Versions: 1 2 3 4 5 6 7 8 9 10 11 12 13 14 15 16 17 18 19 20 21 22 23 24 25 26 27
000
ASUS45 KTFX 251710
RWRMT
MONTANA REGIONAL WEATHER ROUNDUP
NATIONAL WEATHER SERVICE GREAT FALLS MT
1100 AM MDT WED APR 25 2018

NOTE: "FAIR" INDICATES FEW OR NO CLOUDS BELOW 12000 FEET WITH NO
SIGNIFICANT WEATHER AND/OR OBSTRUCTIONS TO VISIBILITY.

MTZ001>007-043-251800-
WEST OF THE DIVIDE

CITY           SKY/WX    TMP DP  RH WIND       PRES   REMARKS
KALISPELL      PTSUNNY   48  31  51 CALM      30.10S
MISSOULA       FAIR      47  30  51 CALM      30.16F
BUTTE          FAIR      51  20  29 N5        30.17F
MULLAN PASS    FAIR      49  26  41 VRB5      30.15R
ANACONDA         N/A     54  18  24 MISG      30.15S
DEER LODGE       N/A     55  21  26 CALM      30.16F
HAMILTON         N/A     50  30  46 MISG      30.15F
PLAINS           N/A     48  34  58 CALM      30.10F
RONAN            N/A     54  36  50 CALM      30.11F
$$

MTZ008-052>055-251800-
SOUTHWEST MONTANA

CITY           SKY/WX    TMP DP  RH WIND       PRES   REMARKS
BOZEMAN        FAIR      49  28  44 CALM      30.16F
DILLON         FAIR      48  29  47 S10       30.19F
ENNIS          CLOUDY    54  23  30 S15G24    30.22S
W YELLOWSTONE  FAIR      41  19  42 CALM      30.25F
THREE FORKS      N/A     48  32  54 CALM      30.13F
TWIN BRIDGES     N/A     52  23  32 SE8       30.16F
$$

MTZ009-010-012-014-046-048-049-054-251800-
EAST SLOPES AND CENTRAL MONTANA

CITY           SKY/WX    TMP DP  RH WIND       PRES   REMARKS
CUT BANK       PTSUNNY   49  29  46 N33G41    30.11R
GREAT FALLS    FAIR      57  24  28 SW21G26   30.04F
MALMSTROM AFB  FAIR      57  24  28 SW16      30.05R
HELENA         FAIR      48  31  51 N5        30.15F
AUGUSTA        FAIR      59  23  24 NW6       30.07S
BOWMANS CRNR   FAIR      54  23  30 S16       30.06S
CHOTEAU          N/A     52  27  37 N26G35    30.11R
POWER          FAIR      56  24  28 SW17      30.04S
RAYNESFORD     PTSUNNY   60  18  19 SW25G32   30.03S
ULM            CLOUDY    56  25  29 W21       30.05F
WHITE SULPHUR    N/A     50  19  29 SW16G29   30.11R
$$

MTZ011-013-016-021-045-047-050-051-251800-
NORTH CENTRAL MONTANA

CITY           SKY/WX    TMP DP  RH WIND       PRES   REMARKS
HAVRE          FAIR      56  30  37 W15       29.99R
LEWISTOWN      FAIR      60  24  25 W24       30.02F
N BAR RANCH    FAIR      63  14  15 W15G24    30.04R
CHINOOK          N/A     55  28  35 MISG      29.97R
GRASS RANGE    FAIR      61  20  21 NW15      29.97F
STANFORD       FAIR      61  17  18 W15       30.03F
$$

MTZ017>020-022>027-061-062-251800-
NORTHEAST MONTANA

CITY           SKY/WX    TMP DP  RH WIND       PRES   REMARKS
GLASGOW        FAIR      55  32  41 SW7       29.92F
GLENDIVE       FAIR      55  32  41 SW23      29.97F
JORDAN           N/A     59  33  37 W17       29.96F
MALTA          SUNNY     52  34  50 SW9       29.91F
SIDNEY         FAIR      56  33  42 SW16G24   29.95F
WOLF POINT     FAIR      58  33  39 W9        29.93F
PLENTYWOOD       N/A     55  30  38 SW15      29.88F
POPLAR           N/A     55  30  38 W13       29.93F
SCOBEY           N/A     57  26  30 SW16      29.89F
$$

MTZ028>42-056>058-251800-
SOUTHCENTRAL AND SOUTHEAST MONTANA

CITY           SKY/WX    TMP DP  RH WIND       PRES   REMARKS
BAKER          FAIR      57  28  33 SW21      30.03F
BILLINGS       PTSUNNY   57  29  34 W20G25    30.06F
LIVINGSTON     FAIR      58  26  29 W17G26    30.11F
MILES CITY     FAIR      57  35  43 S7        30.01F
BIG TIMBER     SUNNY     54  27  35 W25       30.10S
EKALAKA          N/A     58  25  28 S6        30.02F
FORSYTH          N/A     61  27  27 SW10      30.01F
HARLOWTON      PTSUNNY   54  23  29 W30G37    30.07F
LAUREL           N/A     55  27  33 SW22G29   30.08
$$

REGIONAL REPORTS...DAKOTAS

CITY           SKY/WX    TMP DP  RH WIND       PRES   REMARKS
WILLISTON      FAIR      54  32  43 SW12      29.93F
MINOT          FAIR      61  30  31 S21G28    29.92F
DICKINSON      FAIR      59  29  31 SW18G31   30.00F
BEACH          FAIR      57  21  24 SW21      30.02F
CROSBY         FAIR      57  32  38 SW26G36   29.86F
TIOGA          FAIR      55  28  35 SW20G30   29.93F
WATFORD CITY   FAIR      59  28  31 SW17G25   29.95F
BISMARCK       FAIR      59  28  30 SW20G28   30.07F
GRAND FORKS    FAIR      59  40  49 SW20G28   30.05F
FARGO          FAIR      58  33  39 S17       30.13F
BUFFALO SD       N/A     59  26  28 SW14      30.01F
RAPID CITY     FAIR      59  29  31 S13       30.11F
$$

REGIONAL REPORTS...WYOMING/IDAHO/WASHINGTON

CITY           SKY/WX    TMP DP  RH WIND       PRES   REMARKS
GILLETTE         N/A     60  26  27 S21       30.09F
SHERIDAN       FAIR      53  29  39 VRB3      30.07F
BUFFALO WY     FAIR      60  23  24 SE8       30.09F
CODY           FAIR      56  16  20 SE12      30.14F
YELLOWSTONE LA   N/A     32  17  54 VRB3      30.31F
IDAHO FALLS    FAIR      54  30  40 CALM      30.26F
SALMON         FAIR      48  27  44 CALM      30.23F
BOISE          FAIR      59  33  37 CALM      30.20S
SPOKANE        FAIR      60  37  42 CALM      30.11R
$$

REGIONAL REPORTS...ALBERTA

CITY           SKY/WX    TMP DP  RH WIND       PRES   REMARKS
CALGARY        PTSUNNY   48  28  46 N15G25    30.16F
CARDSTON         N/A     46  28  49 N12G18      N/A
EDMONTON       SUNNY     52  27  37 N9        30.10R
FORT MCMURRAY  SUNNY     54  30  40 NW7       30.01S
HIGH LEVEL     MOSUNNY   54  25  32 VRB5      29.97F
LETHBRIDGE     PTSUNNY   50  30  46 N22G28    30.17R
LLOYDMINSTER   MOSUNNY   54  30  40 N14G20    30.01S
MEDICINE HAT   CLOUDY    54  32  43 N23G29    30.07R
MILK RIVER       N/A     50  32  50 N26G36      N/A
ONEFOUR          N/A     50  28  43 N28G35      N/A
PEACE RIVER    PTSUNNY   48  30  49 SW9       30.08F
PINCHER CREEK  MOSUNNY   46  30  53 E13G21    30.17R
WATERTON GATE    N/A     45  27  49 NE14        N/A
$$

REGIONAL REPORTS...SASKATCHEWAN

CITY           SKY/WX    TMP DP  RH WIND       PRES   REMARKS
CORONACH         N/A     61  25  25 W17G24      N/A
ESTEVAN        CLOUDY    59  32  36 SW23G35   29.84F
MOOSE JAW        N/A     55  28  35 N14G20      N/A
PRINCE ALBERT  PTSUNNY   55  30  38 N13G22    29.92S
REGINA         CLOUDY    55  28  35 NW9       29.82S
ROCKGLEN         N/A     54  27  35 W20G26      N/A
SASKATOON      PTSUNNY   57  30  35 NE14      29.93S
SWIFT CURRENT  PTSUNNY   52  27  37 N18G24    29.93R
VAL MARIE        N/A     55  28  35 NW18        N/A
$$




USA.gov is the U.S. government's official web portal to all federal, state and local government web resources and services.